"Gas Day","BTU","CHDP","Wobbe Index","CO2","N2","Gravity","Methane","Ethane","Propane","Ibutane","Nbutane","Ipentane","Npentane","C6+"
"2024-05-07 00:00:00.0","1153.3513","63.1988","1426.8840","0.4173","0.2614","0.6533","88.6728","5.4305","2.9707","0.5912","0.9261","0.2843","0.2619","0.1839"
"2024-05-06 00:00:00.0","1152.2479","62.7625","1424.3909","0.4826","0.3268","0.6544","88.4359","5.5997","2.9140","0.5919","0.9238","0.2833","0.2606","0.1815"
"2024-05-05 00:00:00.0","1149.9798","60.9733","1420.2708","0.5594","0.4612","0.6556","88.1241","5.7686","2.8609","0.5936","0.9227","0.2813","0.2579","0.1703"
"2024-05-04 00:00:00.0","1149.9213","61.3114","1419.1223","0.6291","0.4525","0.6566","87.9740","5.8901","2.8184","0.5977","0.9279","0.2808","0.2570","0.1726"
"2024-05-03 00:00:00.0","1148.6040","58.8254","1418.3636","0.6739","0.3889","0.6558","88.0265","5.9466","2.7575","0.5955","0.9224","0.2772","0.2535","0.1581"
"2024-05-02 00:00:00.0","1149.8696","59.8303","1419.7483","0.6909","0.3023","0.6559","88.0640","5.9839","2.7281","0.6014","0.9273","0.2809","0.2578","0.1633"
"2024-05-01 00:00:00.0","1150.3577","59.1882","1421.0273","0.6805","0.2302","0.6553","88.1683","5.9898","2.6911","0.6058","0.9330","0.2820","0.2591","0.1601"
"2024-04-30 00:00:00.0","1151.5273","60.9116","1422.9006","0.6277","0.2028","0.6549","88.2458","6.0032","2.6580","0.6083","0.9378","0.2837","0.2616","0.1710"
"2024-04-29 00:00:00.0","1150.0304","55.9730","1423.6862","0.5183","0.2326","0.6525","88.4048","6.0058","2.6273","0.6035","0.9299","0.2798","0.2569","0.1411"
"2024-04-28 00:00:00.0","1153.4678","59.9575","1426.7757","0.4456","0.2357","0.6536","88.3710","6.0094","2.6490","0.6144","0.9543","0.2901","0.2685","0.1620"
"2024-04-27 00:00:00.0","1154.4684","60.6448","1427.9543","0.4130","0.2301","0.6536","88.3700","6.0267","2.6644","0.6146","0.9541","0.2907","0.2706","0.1658"
"2024-04-26 00:00:00.0","1156.7913","60.4780","1430.0280","0.3726","0.2203","0.6544","88.2807","6.0871","2.7213","0.6216","0.9674","0.2931","0.2731","0.1628"
"2024-04-25 00:00:00.0","1158.9751","60.3526","1432.0120","0.3338","0.2094","0.6550","88.2386","6.0580","2.8322","0.6230","0.9737","0.2949","0.2760","0.1604"
"2024-04-24 00:00:00.0","1156.0130","56.9679","1429.5246","0.2810","0.3681","0.6540","88.2643","5.9227","2.9017","0.6022","0.9517","0.2920","0.2721","0.1443"
"2024-04-23 00:00:00.0","1144.7780","53.8728","1413.8143","0.4022","1.0169","0.6556","87.6565","5.8622","2.9118","0.5778","0.9148","0.2744","0.2524","0.1313"
"2024-04-22 00:00:00.0","1138.1532","54.7505","1399.6736","0.4405","1.8811","0.6612","86.5530","5.9737","2.9717","0.5812","0.9242","0.2799","0.2642","0.1305"
"2024-04-21 00:00:00.0","1152.5431","53.5883","1422.6889","0.3681","0.6624","0.6563","87.7183","6.0531","3.0123","0.5867","0.9281","0.2816","0.2657","0.1238"
"2024-04-20 00:00:00.0","1162.1424","61.0182","1432.1148","0.3815","0.2706","0.6585","87.9562","5.9477","3.0554","0.6155","0.9983","0.3143","0.2976","0.1628"
"2024-04-19 00:00:00.0","1164.7955","69.0157","1432.1181","0.4230","0.3281","0.6615","87.8362","5.8208","3.0632","0.6277","1.0232","0.3395","0.3326","0.2055"
"2024-04-18 00:00:00.0","1163.2201","67.8588","1431.3051","0.4204","0.3297","0.6605","87.9099","5.8127","3.0397","0.6197","1.0096","0.3326","0.3265","0.1991"
"2024-04-17 00:00:00.0","1161.4866","66.1813","1430.3917","0.4190","0.3309","0.6594","87.9816","5.8080","3.0211","0.6129","0.9943","0.3252","0.3176","0.1894"
"2024-04-16 00:00:00.0","1162.0204","66.4236","1430.6814","0.4181","0.3319","0.6597","87.9525","5.8155","3.0294","0.6152","1.0002","0.3270","0.3199","0.1904"
"2024-04-15 00:00:00.0","1159.9923","64.5115","1429.6823","0.4124","0.3334","0.6583","88.0371","5.8158","3.0112","0.6049","0.9806","0.3161","0.3079","0.1808"
"2024-04-14 00:00:00.0","1156.5762","61.5981","1427.8477","0.4119","0.3350","0.6561","88.1838","5.8006","2.9746","0.5897","0.9484","0.2994","0.2897","0.1670"
"2024-04-13 00:00:00.0","1153.6240","59.1960","1426.2405","0.4121","0.3371","0.6542","88.3130","5.7858","2.9400","0.5768","0.9177","0.2858","0.2751","0.1568"
"2024-04-12 00:00:00.0","1152.2874","58.0788","1425.4609","0.4147","0.3386","0.6535","88.3702","5.7751","2.9236","0.5707","0.9056","0.2801","0.2694","0.1520"
"2024-04-11 00:00:00.0","1154.0714","58.5571","1426.3345","0.4185","0.3398","0.6547","88.2796","5.7794","2.9481","0.5825","0.9310","0.2906","0.2792","0.1512"
"2024-04-10 00:00:00.0","1157.9913","62.3485","1428.3240","0.4242","0.3402","0.6573","88.1095","5.7849","2.9940","0.5999","0.9679","0.3103","0.2998","0.1694"
"2024-04-09 00:00:00.0","1161.8557","66.2265","1430.3981","0.4236","0.3403","0.6598","87.9443","5.8026","3.0352","0.6153","1.0045","0.3265","0.3188","0.1889"
"2024-04-08 00:00:00.0","1160.9422","65.4703","1429.9214","0.4217","0.3423","0.6592","87.9839","5.8003","3.0225","0.6116","0.9952","0.3228","0.3149","0.1848"
"2024-04-07 00:00:00.0","1159.5347","64.2214","1429.2138","0.4188","0.3430","0.6582","88.0386","5.8049","3.0110","0.6041","0.9802","0.3139","0.3065","0.1791"
"2024-04-06 00:00:00.0","1155.4727","60.4604","1427.0457","0.4177","0.3444","0.6556","88.2094","5.7902","2.9711","0.5866","0.9417","0.2940","0.2838","0.1612"
"2024-04-05 00:00:00.0","1153.2185","58.3333","1425.8881","0.4141","0.3458","0.6541","88.3001","5.7942","2.9488","0.5757","0.9156","0.2825","0.2710","0.1521"
"2024-04-04 00:00:00.0","1150.0511","55.8189","1424.1947","0.4129","0.3472","0.6521","88.4468","5.7764","2.9054","0.5608","0.8833","0.2688","0.2562","0.1423"
"2024-04-03 00:00:00.0","1152.3022","56.4959","1425.3088","0.4183","0.3469","0.6536","88.3278","5.7855","2.9457","0.5751","0.9132","0.2788","0.2663","0.1423"
"2024-04-02 00:00:00.0","1159.8999","62.7329","1429.3688","0.4192","0.3460","0.6585","87.9826","5.8291","3.0389","0.6099","0.9891","0.3129","0.3024","0.1698"
"2024-04-01 00:00:00.0","1162.5652","65.4123","1430.8454","0.4158","0.3466","0.6602","87.8653","5.8501","3.0702","0.6199","1.0086","0.3242","0.3163","0.1830"
"2024-03-31 00:00:00.0","1161.0308","64.1811","1430.0803","0.4119","0.3480","0.6591","87.9268","5.8558","3.0544","0.6119","0.9917","0.3158","0.3063","0.1774"
"2024-03-30 00:00:00.0","1155.3745","60.3698","1427.1345","0.4056","0.3509","0.6554","88.1913","5.8313","2.9757","0.5819","0.9311","0.2903","0.2801","0.1618"
"2024-03-29 00:00:00.0","1148.7816","54.8886","1423.6215","0.4029","0.3534","0.6512","88.4983","5.7882","2.8885","0.5517","0.8671","0.2615","0.2492","0.1390"
"2024-03-28 00:00:00.0","1146.7655","52.9895","1422.5222","0.4021","0.3561","0.6499","88.5837","5.7816","2.8646","0.5421","0.8456","0.2524","0.2397","0.1321"
"2024-03-27 00:00:00.0","1147.9625","52.4669","1423.1699","0.4014","0.3568","0.6506","88.5070","5.8011","2.8932","0.5509","0.8621","0.2571","0.2431","0.1271"
"2024-03-26 00:00:00.0","1153.5726","57.4608","1426.2809","0.3964","0.3555","0.6542","88.2536","5.8430","2.9634","0.5755","0.9158","0.2806","0.2687","0.1477"
"2024-03-25 00:00:00.0","1154.6481","58.3170","1426.8537","0.3907","0.3646","0.6548","88.1845","5.8679","2.9820","0.5788","0.9223","0.2850","0.2735","0.1506"
"2024-03-24 00:00:00.0","1151.1697","56.3390","1425.0222","0.3905","0.3623","0.6526","88.3525","5.8451","2.9394","0.5615","0.8837","0.2665","0.2537","0.1449"
"2024-03-23 00:00:00.0","1152.2604","56.8226","1425.5845","0.3910","0.3633","0.6533","88.2964","5.8544","2.9530","0.5672","0.8977","0.2714","0.2590","0.1466"
"2024-03-22 00:00:00.0","1152.1654","57.9124","1425.4850","0.3923","0.3654","0.6533","88.3224","5.8338","2.9358","0.5648","0.8969","0.2745","0.2617","0.1525"
"2024-03-21 00:00:00.0","1148.8674","55.0861","1423.7629","0.3899","0.3651","0.6511","88.4790","5.8161","2.8873","0.5491","0.8633","0.2610","0.2490","0.1403"
"2024-03-20 00:00:00.0","1148.2661","55.0284","1423.4641","0.3848","0.3710","0.6507","88.4929","5.8290","2.8886","0.5440","0.8503","0.2551","0.2420","0.1423"
"2024-03-19 00:00:00.0","1145.5587","51.2445","1422.0741","0.3807","0.3721","0.6489","88.5924","5.8370","2.8700","0.5327","0.8225","0.2406","0.2259","0.1262"
"2024-03-18 00:00:00.0","1152.4329","55.2416","1425.7967","0.3783","0.3727","0.6533","88.2475","5.8996","2.9735","0.5693","0.8973","0.2687","0.2546","0.1386"
"2024-03-17 00:00:00.0","1159.2840","61.9260","1429.4017","0.3787","0.3771","0.6578","87.9398","5.9305","3.0548","0.5999","0.9640","0.2996","0.2876","0.1681"
"2024-03-16 00:00:00.0","1160.7438","62.8575","1430.2113","0.3740","0.3819","0.6587","87.8542","5.9572","3.0845","0.6063","0.9753","0.3030","0.2916","0.1721"
"2024-03-15 00:00:00.0","1163.8291","64.5910","1431.8474","0.3732","0.3840","0.6607","87.6992","5.9849","3.1300","0.6221","1.0049","0.3163","0.3058","0.1797"
"2024-03-14 00:00:00.0","1165.7204","66.6964","1432.9179","0.3680","0.3867","0.6618","87.6140","6.0065","3.1505","0.6271","1.0192","0.3231","0.3137","0.1912"
"2024-03-13 00:00:00.0","1160.0604","62.8263","1429.8911","0.3665","0.3893","0.6582","87.8859","5.9615","3.0697","0.5994","0.9638","0.3004","0.2903","0.1732"
"2024-03-12 00:00:00.0","1152.3666","57.1758","1425.7485","0.3665","0.3916","0.6533","88.2457","5.9073","2.9683","0.5638","0.8859","0.2668","0.2542","0.1497"
"2024-03-11 00:00:00.0","1149.0743","53.1921","1423.9779","0.3666","0.3924","0.6512","88.3779","5.9009","2.9352","0.5504","0.8559","0.2516","0.2369","0.1324"
"2024-03-10 00:00:00.0","1148.7525","52.3270","1423.7803","0.3664","0.3950","0.6510","88.3725","5.9123","2.9428","0.5501","0.8523","0.2477","0.2325","0.1285"
"2024-03-09 00:00:00.0","1154.2062","55.8178","1426.6767","0.3679","0.3949","0.6545","88.1053","5.9498","3.0222","0.5795","0.9129","0.2717","0.2568","0.1391"
"2024-03-08 00:00:00.0","1161.3973","62.4857","1430.4244","0.3675","0.4037","0.6592","87.7744","5.9825","3.1125","0.6123","0.9838","0.3040","0.2905","0.1688"
"2024-03-07 00:00:00.0","1162.1644","62.6155","1431.0715","0.3560","0.4010","0.6595","87.7289","6.0206","3.1337","0.6136","0.9846","0.3023","0.2897","0.1696"
"2024-03-06 00:00:00.0","1158.4754","60.9214","1428.6634","0.3569","0.4370","0.6575","87.8714","5.9778","3.0785","0.5961","0.9512","0.2889","0.2765","0.1656"
"2024-03-05 00:00:00.0","1156.1855","58.9627","1427.1000","0.3707","0.4446","0.6564","88.0315","5.8332","3.0583","0.5946","0.9503","0.2887","0.2758","0.1525"
"2024-03-04 00:00:00.0","1155.1716","61.3340","1423.1116","0.3892","0.7135","0.6589","87.7580","5.6836","3.1107","0.6114","0.9844","0.3005","0.2867","0.1621"
"2024-03-03 00:00:00.0","1157.1719","64.0158","1423.4481","0.4026","0.7567","0.6609","87.6415","5.6056","3.1702","0.6233","1.0083","0.3139","0.3029","0.1749"
"2024-03-02 00:00:00.0","1151.2483","60.4950","1420.2049","0.4025","0.7616","0.6571","87.9253","5.5613","3.0812","0.5929","0.9465","0.2896","0.2777","0.1616"
"2024-03-01 00:00:00.0","1144.7305","54.7850","1416.6529","0.4027","0.7647","0.6530","88.2031","5.5375","3.0082","0.5629","0.8816","0.2585","0.2436","0.1372"
"2024-02-29 00:00:00.0","1147.2311","55.1904","1418.0415","0.4032","0.7607","0.6545","88.0682","5.5653","3.0583","0.5784","0.9097","0.2679","0.2522","0.1361"
"2024-02-28 00:00:00.0","1155.0225","60.9456","1422.2864","0.4045","0.7544","0.6595","87.7167","5.6071","3.1599","0.6170","0.9899","0.3029","0.2884","0.1593"
"2024-02-27 00:00:00.0","1159.1236","64.5890","1424.4306","0.4053","0.7585","0.6622","87.5322","5.6130","3.2223","0.6353","1.0283","0.3203","0.3092","0.1757"
"2024-02-26 00:00:00.0","1152.0177","59.8086","1420.5486","0.4053","0.7636","0.6577","87.8640","5.5609","3.1264","0.6015","0.9579","0.2889","0.2756","0.1561"
"2024-02-25 00:00:00.0","1147.5249","56.4754","1418.1137","0.4059","0.7638","0.6548","88.0738","5.5338","3.0647","0.5793","0.9110","0.2690","0.2550","0.1437"
"2024-02-24 00:00:00.0","1147.7000","55.9552","1418.1412","0.4077","0.7669","0.6550","88.0616","5.5144","3.0873","0.5829","0.9164","0.2683","0.2535","0.1412"
"2024-02-23 00:00:00.0","1153.3528","59.8998","1421.1661","0.4082","0.7681","0.6586","87.7808","5.5693","3.1595","0.6100","0.9743","0.2943","0.2803","0.1553"
"2024-02-22 00:00:00.0","1153.0137","59.9992","1421.0185","0.4060","0.7685","0.6584","87.7965","5.5797","3.1446","0.6059","0.9683","0.2944","0.2811","0.1551"
"2024-02-21 00:00:00.0","1149.5709","57.9569","1418.9470","0.4191","0.7667","0.6564","88.0171","5.4414","3.1173","0.5944","0.9446","0.2832","0.2689","0.1473"
"2024-02-20 00:00:00.0","1143.5328","56.9506","1411.6600","0.4390","1.0844","0.6562","87.9589","5.1777","3.1256","0.5908","0.9378","0.2783","0.2644","0.1432"
"2024-02-19 00:00:00.0","1142.2449","52.1014","1414.0033","0.4452","0.8110","0.6526","88.4313","5.0872","3.1189","0.5786","0.9067","0.2583","0.2402","0.1228"
"2024-02-18 00:00:00.0","1156.3998","56.0185","1427.3943","0.4101","0.3700","0.6563","87.9626","5.9591","3.0674","0.6023","0.9593","0.2758","0.2555","0.1378"
"2024-02-17 00:00:00.0","1157.9088","57.1432","1428.3427","0.4032","0.3684","0.6572","87.8989","5.9757","3.0856","0.6081","0.9754","0.2815","0.2618","0.1415"
"2024-02-16 00:00:00.0","1161.3752","59.9169","1430.3528","0.3955","0.3668","0.6593","87.7299","6.0179","3.1464","0.6238","1.0025","0.2920","0.2715","0.1539"
"2024-02-15 00:00:00.0","1162.7902","60.6464","1431.1922","0.3916","0.3656","0.6601","87.6606","6.0312","3.1780","0.6313","1.0151","0.2959","0.2739","0.1568"
"2024-02-14 00:00:00.0","1163.7441","60.9477","1431.8254","0.3828","0.3684","0.6606","87.6018","6.0682","3.1898","0.6349","1.0209","0.2983","0.2772","0.1577"
"2024-02-13 00:00:00.0","1164.3276","59.8433","1432.3413","0.3705","0.3697","0.6608","87.5440","6.1155","3.2181","0.6370","1.0224","0.2965","0.2753","0.1510"
"2024-02-12 00:00:00.0","1162.4190","58.9529","1429.9848","0.4365","0.3838","0.6608","87.7089","5.7943","3.2636","0.6365","1.0416","0.3079","0.2845","0.1424"
"2024-02-11 00:00:00.0","1163.5489","61.7056","1429.2079","0.4894","0.4222","0.6628","87.6279","5.6371","3.3386","0.6438","1.0616","0.3242","0.3013","0.1540"
"2024-02-10 00:00:00.0","1167.4910","62.0223","1434.2906","0.4640","0.2033","0.6626","87.7039","5.8012","3.3315","0.6454","1.0678","0.3258","0.3012","0.1557"
"2024-02-09 00:00:00.0","1168.9078","61.9727","1435.2277","0.4396","0.2253","0.6633","87.5456","5.9458","3.3388","0.6499","1.0749","0.3248","0.3003","0.1548"
"2024-02-08 00:00:00.0","1167.2053","61.4301","1434.0518","0.3930","0.3200","0.6625","87.4729","6.0827","3.2743","0.6481","1.0566","0.3098","0.2865","0.1561"
